Voltar ao catálogo

STARLINK-34859

AtivoComunicaçõesVLEO
NORAD 65348·PAYLOAD·🇺🇸 United States

Lançado Aug 27, 2025 de Cape Canaveral Space Force Station

Loading…

Próximas Passagens (próximas 24 horas)

TLE

AtualizadoSource: CelesTrak SupGP

Época: Sep 15, 2026, 03:44 UTC

1 65348C 25189AB  26258.15604167  .00010394  00000+0  30710-3 0  2582
2 65348  53.1600  44.5406 0001179  91.8927 325.4198 15.34384921    13

Acompanhe STARLINK-34859 em tempo real com AllMySat

Download on the App Store